Location: Baia Mare
(47.6567°N, 23.5850°E)
Time: 07:12:05
(UTC+03:00)

ISS - Pass Details

Date: 31 July 2018
Orbit: 402 x 408 km, 51.6° (Epoch: 21 July)

Event Time Altitude Azimuth Distance (km) Brightness Sun altitude
Rises 23:15:32 0° 293° (WNW) 2,324 1.0 -17.5°
Reaches altitude 10° 23:17:37 10° 293° (WNW) 1,463 -0.2 -17.7°
Maximum altitude 23:20:54 82° 206° (SSW) 414 -4.0 -18.0°
Enters shadow 23:21:19 64° 134° (SE) 451 -4.0 -18.0°
